TimeEDT,TemperatureF,Dew PointF,Humidity,Sea Level PressureIn,VisibilityMPH,Wind Direction,Wind SpeedMPH,Gust SpeedMPH,PrecipitationIn,Events,Conditions,WindDirDegrees,DateUTC
12:54 AM,36.0,17.1,46,30.18,10.0,NNW,5.8,-,N/A,,Clear,340,2013-03-14 04:54:00
1:54 AM,36.0,17.1,46,30.19,10.0,North,10.4,-,N/A,,Clear,360,2013-03-14 05:54:00
2:54 AM,33.1,18.0,54,30.20,10.0,North,8.1,-,N/A,,Clear,360,2013-03-14 06:54:00
3:54 AM,32.0,18.0,56,30.22,10.0,North,8.1,-,N/A,,Clear,10,2013-03-14 07:54:00
4:54 AM,32.0,17.1,54,30.22,10.0,North,8.1,-,N/A,,Clear,360,2013-03-14 08:54:00
5:54 AM,30.0,17.1,59,30.24,10.0,Calm,Calm,-,N/A,,Clear,0,2013-03-14 09:54:00
6:54 AM,30.9,17.1,57,30.27,10.0,NNW,8.1,-,N/A,,Clear,340,2013-03-14 10:54:00
7:54 AM,30.9,16.0,54,30.29,10.0,NNW,8.1,-,N/A,,Clear,340,2013-03-14 11:54:00
8:54 AM,34.0,16.0,48,30.31,10.0,NNW,9.2,-,N/A,,Clear,330,2013-03-14 12:54:00
9:54 AM,39.0,17.1,41,30.31,10.0,North,13.8,-,N/A,,Clear,350,2013-03-14 13:54:00
10:54 AM,41.0,15.1,35,30.31,10.0,NNW,11.5,-,N/A,,Clear,330,2013-03-14 14:54:00
11:54 AM,45.0,16.0,31,30.30,10.0,NNE,9.2,-,N/A,,Clear,20,2013-03-14 15:54:00
12:54 PM,46.9,16.0,29,30.28,10.0,Variable,6.9,-,N/A,,Clear,0,2013-03-14 16:54:00
1:54 PM,50.0,18.0,28,30.25,10.0,Variable,5.8,-,N/A,,Clear,0,2013-03-14 17:54:00
2:54 PM,52.0,15.1,23,30.23,10.0,NW,11.5,-,N/A,,Clear,320,2013-03-14 18:54:00
3:54 PM,53.1,15.1,22,30.20,10.0,NW,10.4,-,N/A,,Clear,310,2013-03-14 19:54:00
4:54 PM,54.0,14.0,21,30.18,10.0,WNW,4.6,-,N/A,,Clear,290,2013-03-14 20:54:00
5:54 PM,52.0,12.9,21,30.18,10.0,WNW,6.9,-,N/A,,Clear,290,2013-03-14 21:54:00
6:54 PM,50.0,18.0,28,30.18,10.0,WSW,5.8,-,N/A,,Clear,240,2013-03-14 22:54:00
7:54 PM,46.0,21.9,39,30.18,10.0,SW,5.8,-,N/A,,Clear,230,2013-03-14 23:54:00
8:54 PM,45.0,19.9,37,30.19,10.0,SW,3.5,-,N/A,,Clear,230,2013-03-15 00:54:00
9:54 PM,39.0,24.1,55,30.20,10.0,Calm,Calm,-,N/A,,Clear,0,2013-03-15 01:54:00
10:54 PM,37.9,23.0,55,30.21,10.0,Variable,4.6,-,N/A,,Clear,0,2013-03-15 02:54:00
11:54 PM,39.0,21.9,50,30.21,10.0,Calm,Calm,-,N/A,,Clear,0,2013-03-15 03:54:00